15min,AgWx,evansfrm,411,03NOV2017:00:00:00,50.4,12.94,51.5,51.5,50.8,51.5,50.5,93,94,90,1.164,48.7,48.9,48.5,1.315,2.6,357,65,4.5,0.00001,0.00002,49.8,48.2,12,0,88,55.0,5.18,0.00,0.00
15min,AgWx,evansfrm,411,03NOV2017:00:15:00,50.3,12.91,51.3,51.3,51.5,51.9,51.0,89,91,87,1.159,48.3,48.6,48.1,2.894,1.2,71,66,4.6,-0.00000,-0.00000,49.9,48.6,12,0,76,55.4,5.18,0.00,0.00
15min,AgWx,evansfrm,411,03NOV2017:00:30:00,50.2,12.89,53.0,52.3,51.0,52.3,50.7,91,93,86,1.143,48.6,48.8,48.1,3.091,1.7,183,84,8.3,-0.00000,0.00000,49.8,48.4,12,0,100,54.7,5.18,0.00,0.00
15min,AgWx,evansfrm,411,03NOV2017:00:45:00,50.2,12.93,52.1,52.4,52.9,53.6,52.3,79,85,77,1.089,46.7,47.9,46.3,0.965,1.6,349,95,3.8,0.00004,0.00007,49.9,48.4,12,0,100,55.0,5.18,0.00,0.00
15min,AgWx,evansfrm,411,03NOV2017:01:00:00,50.1,12.93,51.3,51.3,51.4,52.4,50.9,88,90,81,1.137,47.8,48.3,46.9,5.305,2.6,51,29,6.6,0.00003,0.00005,49.8,48.2,12,0,100,55.4,5.19,0.00,0.01
15min,AgWx,evansfrm,411,03NOV2017:01:15:00,50.1,12.93,51.6,51.2,50.9,51.2,50.7,91,92,89,1.151,48.3,48.5,48.0,4.472,3.4,45,27,6.7,0.00003,0.00004,49.8,48.2,12,0,81,54.1,5.19,0.00,0.00
15min,AgWx,evansfrm,411,03NOV2017:01:30:00,50.0,12.95,52.6,52.1,51.4,52.2,50.8,88,91,84,1.109,48.0,48.3,47.3,4.538,4.7,55,10,6.6,0.00006,0.00009,49.7,48.4,12,0,0,50.9,5.19,0.00,0.00
15min,AgWx,evansfrm,411,03NOV2017:01:45:00,49.9,12.95,52.9,53.0,52.1,53.0,51.7,84,85,78,1.072,47.2,47.5,46.4,1.315,4.2,73,23,7.8,0.00009,0.00013,49.7,48.2,12,0,7,52.2,5.18,0.00,0.00
15min,AgWx,evansfrm,411,03NOV2017:02:00:00,49.9,12.94,53.3,53.3,52.6,53.3,52.1,79,81,74,1.027,46.2,46.5,45.3,4.823,3.1,161,31,6.7,0.00009,0.00014,49.7,48.4,12,0,18,51.9,5.18,0.00,0.00
15min,AgWx,evansfrm,411,03NOV2017:02:15:00,50.1,12.94,53.7,53.6,53.7,54.6,53.1,70,75,64,0.933,44.0,45.4,42.6,2.959,3.7,188,20,6.5,0.00017,0.00025,49.7,48.4,12,0,0,53.5,5.18,0.00,0.00
15min,AgWx,evansfrm,411,03NOV2017:02:30:00,50.4,12.94,55.4,55.4,54.5,55.4,53.6,63,67,59,0.881,42.1,42.8,41.3,9.73,5.0,167,17,10.7,0.00027,0.00037,49.7,48.4,12,0,0,54.3,5.17,0.00,0.00
15min,AgWx,evansfrm,411,03NOV2017:02:45:00,51.5,12.93,55.9,55.8,55.8,56.3,55.2,57,59,55,0.862,40.9,41.5,40.3,8.64,9.4,149,8.5,14.2,0.00048,0.00059,49.8,48.2,12,0,0,55.9,5.17,0.00,0.00
15min,AgWx,evansfrm,411,03NOV2017:03:00:00,52.4,12.9,55.6,55.5,56.1,56.6,55.5,55,57,53,0.864,40.2,40.8,39.5,6.357,8.8,160,8.8,12.0,0.00049,0.00061,49.6,48.2,12,0,28,55.3,5.18,0.01,0.00
15min,AgWx,evansfrm,411,03NOV2017:03:15:00,52.9,12.93,55.9,55.9,55.5,56.0,55.1,57,58,54,0.840,40.3,40.9,39.5,7.936,7.7,166,8.9,11.2,0.00044,0.00055,49.6,48.2,12,0,1,54.1,5.18,0.00,0.00
15min,AgWx,evansfrm,411,03NOV2017:03:30:00,53.3,12.93,55.4,55.3,55.7,56.0,55.2,55,57,54,0.841,39.9,40.5,39.4,4.121,5.9,191,25,9.2,0.00039,0.00051,49.7,48.2,12,0,0,53.4,5.18,0.00,0.00
15min,AgWx,evansfrm,411,03NOV2017:03:45:00,53.4,12.92,54.9,54.7,54.8,55.4,54.2,58,60,56,0.851,40.5,41.0,39.9,2.872,4.0,237,21,8.2,0.00027,0.00038,49.6,48.2,12,0,0,53.6,5.18,0.00,0.00
15min,AgWx,evansfrm,411,03NOV2017:04:00:00,53.4,12.92,54.5,54.4,54.6,54.7,54.4,59,60,58,0.851,40.4,40.9,40.0,2.872,2.9,231,13,5.1,0.00021,0.00030,49.7,48.4,12,0,0,52.4,5.18,0.00,0.00
15min,AgWx,evansfrm,411,03NOV2017:04:15:00,53.3,12.9,53.5,53.4,54.3,54.9,53.4,59,63,57,0.876,40.4,41.1,39.8,3.902,3.5,208,15,5.7,0.00023,0.00033,49.7,48.4,12,0,14,52.0,5.18,0.00,0.00
15min,AgWx,evansfrm,411,03NOV2017:04:30:00,53.3,12.84,54.7,54.5,54.3,54.7,53.4,59,63,57,0.843,40.4,41.1,39.6,6.445,7.5,182,10,11.9,0.00039,0.00049,49.6,48.2,12,0,37,52.1,5.18,0.00,0.00
15min,AgWx,evansfrm,411,03NOV2017:04:45:00,53.3,12.91,54.4,54.1,54.4,54.9,53.9,58,60,56,0.818,39.8,40.5,39.1,14.53,9.7,180,9.2,14.9,0.00046,0.00057,49.6,48.4,12,0,0,52.6,5.18,0.00,0.00
15min,AgWx,evansfrm,411,03NOV2017:05:00:00,53.4,12.91,54.3,54.2,54.1,54.7,53.6,57,59,55,0.824,39.4,39.9,38.7,7.717,10.0,178,11,15.3,0.00047,0.00057,49.4,48.2,12,0,0,53.9,5.18,0.00,0.00
15min,AgWx,evansfrm,411,03NOV2017:05:15:00,53.4,12.89,54.0,53.9,54.2,54.7,53.6,57,59,55,0.822,39.2,39.7,38.6,4.889,8.4,176,10,13.9,0.00044,0.00055,49.6,48.2,12,0,10,52.6,5.18,0.01,0.00
15min,AgWx,evansfrm,411,03NOV2017:05:30:00,53.2,12.88,53.8,53.9,53.6,54.0,53.1,59,61,57,0.825,39.6,40.2,39.2,4.845,6.2,183,12,9.0,0.00035,0.00045,49.5,48.2,12,0,51,51.0,5.19,0.01,0.00
15min,AgWx,evansfrm,411,03NOV2017:05:45:00,53.0,12.86,52.8,52.7,53.4,53.8,52.5,60,63,58,0.851,39.8,40.4,39.2,2.477,4.2,203,7.0,6.9,0.00026,0.00036,49.4,48.2,12,0,47,51.0,5.19,0.00,0.00
15min,AgWx,evansfrm,411,03NOV2017:06:00:00,52.6,12.86,52.0,51.9,52.2,52.7,51.9,65,66,63,0.867,40.7,41.0,40.3,2.806,2.6,223,24,4.1,0.00015,0.00022,49.4,48.0,12,0,100,52.2,5.20,0.01,0.00
15min,AgWx,evansfrm,411,03NOV2017:06:15:00,52.0,12.85,51.9,51.8,51.6,52.1,51.1,68,69,66,0.872,41.2,41.5,40.8,3.529,3.7,277,27,7.5,0.00018,0.00025,49.4,48.4,12,0,100,51.3,5.19,0.00,0.00
15min,AgWx,evansfrm,411,03NOV2017:06:30:00,51.3,12.84,50.7,51.0,51.3,51.8,50.7,68,70,66,0.885,41.2,41.5,40.7,2.938,3.0,284,21,4.9,0.00015,0.00021,49.4,48.2,12,0,100,51.7,5.19,0.00,0.00
15min,AgWx,evansfrm,411,03NOV2017:06:45:00,50.7,12.84,50.3,50.5,50.6,51.0,50.3,71,72,70,0.897,41.6,41.8,41.4,2.214,2.8,261,27,5.2,0.00012,0.00018,49.4,48.2,12,0,100,51.3,5.19,0.00,0.00
15min,AgWx,evansfrm,411,03NOV2017:07:00:00,50.2,12.82,49.4,49.6,50.0,50.5,49.4,74,79,72,0.954,42.2,43.4,41.6,2.653,1.8,158,50,4.5,0.00006,0.00010,49.2,48.0,12,0,100,52.0,5.20,0.01,0.00
15min,AgWx,evansfrm,411,03NOV2017:07:15:00,49.8,12.82,52.0,51.6,49.9,51.7,49.0,79,87,67,0.875,43.7,45.5,41.1,10.15,5.7,176,22,12.7,0.00016,0.00021,49.2,48.2,12,11,82,50.7,5.20,0.00,0.00
15min,AgWx,evansfrm,411,03NOV2017:07:30:00,49.6,12.85,51.6,51.5,51.7,52.1,51.3,66,67,65,0.869,40.9,41.2,40.6,8.66,10.6,190,8.7,15.2,0.00038,0.00088,49.2,48.2,12,27,6,49.8,5.20,0.00,0.00
15min,AgWx,evansfrm,411,03NOV2017:07:45:00,49.5,12.84,50.7,50.6,51.0,51.5,50.5,69,71,67,0.893,41.1,41.7,40.7,6.905,8.3,186,9.5,14.6,0.00057,0.00097,49.3,48.2,12,14,0,49.5,5.19,0.00,0.00
15min,AgWx,evansfrm,411,03NOV2017:08:00:00,49.6,12.8,50.7,50.5,50.5,50.6,50.4,72,73,71,0.907,42.0,42.2,41.7,4.647,6.0,185,7.3,7.8,0.00046,0.00074,49.1,48.2,12,24,27,49.9,5.19,0.00,0.00
15min,AgWx,evansfrm,411,03NOV2017:08:15:00,49.9,12.82,51.1,51.0,50.8,51.1,50.4,71,73,70,0.894,41.8,42.3,41.5,5.678,5.2,196,9.0,7.8,0.00049,0.00075,49.2,48.2,12,34,18,49.9,5.19,0.00,0.00
15min,AgWx,evansfrm,411,03NOV2017:08:30:00,50.3,12.89,52.1,52.0,51.9,52.3,51.0,66,70,64,0.874,40.9,41.6,40.4,4.954,6.2,200,12,9.6,0.00068,0.00105,49.3,47.8,12,51,2,51.3,5.19,0.00,0.00
15min,AgWx,evansfrm,411,03NOV2017:08:45:00,50.9,12.88,53.1,52.8,52.7,53.2,51.9,62,66,60,0.830,40.2,41.2,39.6,8.11,6.9,193,11,10.3,0.00085,0.00130,49.2,48.2,12,66,0,54.0,5.18,0.00,0.00
15min,AgWx,evansfrm,411,03NOV2017:09:00:00,51.5,12.89,53.2,53.2,52.9,53.2,52.6,61,62,60,0.835,39.9,40.5,39.4,7.322,7.9,190,9.5,12.9,0.00097,0.00149,49.1,47.8,12,71,0,53.0,5.19,0.00,0.00
15min,AgWx,evansfrm,411,03NOV2017:09:15:00,52.1,12.81,53.3,53.0,53.0,53.3,52.7,61,62,60,0.822,39.9,40.4,39.4,8.37,8.7,191,9.9,12.3,0.00102,0.00158,49.1,48.2,12,65,18,53.3,5.19,0.00,0.00
15min,AgWx,evansfrm,411,03NOV2017:09:30:00,52.0,12.76,52.1,51.9,52.4,53.1,51.9,63,66,60,0.867,40.4,41.0,39.5,3.529,4.6,232,19,7.5,0.00064,0.00096,49.2,48.0,12,46,100,52.1,5.20,0.01,0.00
15min,AgWx,evansfrm,411,03NOV2017:09:45:00,51.5,12.8,51.4,51.2,51.6,51.9,51.1,68,72,66,0.905,41.5,42.4,41.0,4.538,3.8,204,24,5.2,0.00051,0.00074,49.2,47.8,12,42,100,51.7,5.21,0.01,0.00
15min,AgWx,evansfrm,411,03NOV2017:10:00:00,51.1,12.84,52.4,52.3,51.7,52.4,51.0,69,73,65,0.876,41.9,43.0,40.9,7.366,6.8,190,13,10.0,0.00070,0.00105,49.2,48.0,12,51,32,52.0,5.20,0.00,0.01
15min,AgWx,evansfrm,411,03NOV2017:10:15:00,50.9,12.9,52.0,51.8,51.6,52.3,51.1,68,70,65,0.864,41.2,41.8,40.2,14.49,12.0,169,10,18.2,0.00117,0.00173,49.3,48.2,12,110,54,52.0,5.21,0.01,0.00
15min,AgWx,evansfrm,411,03NOV2017:10:30:00,50.9,13.03,52.0,51.9,51.9,52.1,51.8,66,68,65,0.878,41.0,41.6,40.5,11.51,12.9,179,8.1,17.5,0.00134,0.00197,49.2,48.0,12,144,0,55.1,5.20,0.00,0.00
15min,AgWx,evansfrm,411,03NOV2017:10:45:00,51.3,13.05,52.7,52.6,52.1,52.7,51.7,65,67,62,0.856,40.6,41.5,39.7,12.69,13.2,179,9.4,17.5,0.00138,0.00204,49.2,47.8,12,135,19,52.8,5.20,0.01,0.00
15min,AgWx,evansfrm,411,03NOV2017:11:00:00,51.7,12.89,51.9,51.9,52.3,52.7,51.9,64,66,61,0.864,40.3,40.9,39.7,12.89,12.5,182,9.4,17.4,0.00119,0.00184,49.3,48.0,12,80,9,52.8,5.20,0.00,0.00
15min,AgWx,evansfrm,411,03NOV2017:11:15:00,51.8,12.87,52.0,51.8,52.2,52.7,51.7,64,66,61,0.855,40.2,41.0,39.5,10.54,9.9,180,12,16.5,0.00105,0.00161,49.3,47.8,12,74,26,51.1,5.21,0.00,0.00
15min,AgWx,evansfrm,411,03NOV2017:11:30:00,52.1,12.9,52.7,52.7,52.1,52.8,51.7,65,67,62,0.843,40.6,41.6,39.9,12.01,8.3,182,13,14.3,0.00105,0.00153,49.4,48.2,12,95,0,53.6,5.20,0.00,0.00
15min,AgWx,evansfrm,411,03NOV2017:11:45:00,52.5,12.88,52.5,52.2,52.4,52.7,52.1,64,67,62,0.859,40.8,41.7,40.0,10.39,10.5,178,9.6,16.4,0.00119,0.00177,49.5,48.0,12,101,0,54.8,5.20,0.00,0.00
15min,AgWx,evansfrm,411,03NOV2017:12:00:00,52.8,12.85,52.3,52.2,52.3,52.5,52.1,64,65,63,0.861,40.5,41.0,40.1,8.66,8.9,183,9.1,12.9,0.00094,0.00146,49.6,47.8,12,61,0,52.9,5.20,0.00,0.00
15min,AgWx,evansfrm,411,03NOV2017:12:15:00,52.7,12.83,52.2,52.0,52.0,52.3,51.8,64,65,63,0.852,40.4,40.7,39.9,9.76,9.8,174,9.9,12.8,0.00092,0.00145,49.6,47.8,12,48,13,52.2,5.21,0.01,0.00
15min,AgWx,evansfrm,411,03NOV2017:12:30:00,52.7,12.81,52.4,52.2,52.3,52.6,52.0,63,65,61,0.830,40.1,40.6,39.5,12.89,10.3,173,10,16.0,0.00096,0.00154,49.6,48.2,12,48,6,52.6,5.20,0.00,0.00
15min,AgWx,evansfrm,411,03NOV2017:12:45:00,52.6,12.8,52.2,51.9,52.5,53.2,51.9,61,64,58,0.840,39.6,40.2,38.4,5.809,10.0,167,11,13.9,0.00094,0.00154,49.6,48.0,12,35,9,51.1,5.21,0.01,0.00
15min,AgWx,evansfrm,411,03NOV2017:13:00:00,52.4,12.8,52.4,52.3,52.0,52.4,51.6,63,65,61,0.827,39.9,40.5,39.3,8.07,9.1,177,10,13.6,0.00085,0.00137,49.6,48.0,12,37,53,50.7,5.21,0.00,0.00
15min,AgWx,evansfrm,411,03NOV2017:13:15:00,52.2,12.81,52.4,52.3,52.3,52.4,52.1,62,63,61,0.825,39.6,40.0,39.3,8.66,8.8,182,9.2,13.5,0.00083,0.00136,49.6,47.8,12,30,0,51.2,5.20,0.00,0.00
15min,AgWx,evansfrm,411,03NOV2017:13:30:00,52.2,12.84,52.8,52.5,52.4,52.7,52.0,61,63,59,0.805,39.3,39.9,38.8,13.96,9.7,175,8.6,14.0,0.00097,0.00155,49.7,48.0,12,45,0,52.5,5.20,0.00,0.00
15min,AgWx,evansfrm,411,03NOV2017:13:45:00,52.5,12.83,53.0,52.8,52.9,53.2,52.6,59,60,58,0.801,38.9,39.5,38.4,8.68,9.8,186,7.2,14.1,0.00106,0.00169,49.6,48.2,12,53,0,53.9,5.20,0.00,0.00
15min,AgWx,evansfrm,411,03NOV2017:14:00:00,52.7,12.84,52.7,52.5,52.5,52.9,52.3,61,63,59,0.835,39.6,40.1,39.0,6.335,7.7,190,10,12.1,0.00089,0.00138,49.6,48.0,12,51,0,52.8,5.20,0.00,0.00
15min,AgWx,evansfrm,411,03NOV2017:14:15:00,52.9,12.92,52.5,52.4,52.3,52.6,51.9,63,65,62,0.855,40.2,40.7,39.7,5.108,7.5,185,12,11.8,0.00096,0.00143,49.7,48.0,12,79,0,54.4,5.20,0.00,0.00
15min,AgWx,evansfrm,411,03NOV2017:14:30:00,53.0,12.97,52.4,52.4,52.3,52.5,52.2,62,64,61,0.841,39.9,40.5,39.4,6.357,7.2,195,9.1,9.6,0.00097,0.00143,49.7,47.8,12,79,0,55.0,5.19,0.00,0.00
15min,AgWx,evansfrm,411,03NOV2017:14:45:00,53.2,12.99,52.5,52.4,52.5,52.6,52.2,62,64,61,0.854,40.0,40.6,39.5,2.718,3.0,263,70,7.5,0.00070,0.00094,49.6,47.8,12,75,0,56.2,5.20,0.00,0.00
15min,AgWx,evansfrm,411,03NOV2017:15:00:00,53.4,12.95,52.3,52.4,52.3,52.5,52.1,66,68,64,0.908,41.4,42.1,40.5,3.003,3.8,39,23,8.1,0.00070,0.00096,49.7,48.4,12,72,0,56.2,5.20,0.00,0.00
15min,AgWx,evansfrm,411,03NOV2017:15:15:00,53.3,12.79,51.7,51.6,51.8,52.4,51.6,69,70,68,0.896,41.8,42.3,41.3,3.091,3.6,348,27,6.6,0.00048,0.00070,49.7,48.0,12,37,0,53.6,5.20,0.00,0.00
15min,AgWx,evansfrm,411,03NOV2017:15:30:00,53.0,12.81,51.2,51.1,51.4,51.6,51.1,69,71,68,0.904,41.7,42.1,41.2,2.061,3.0,341,25,6.3,0.00034,0.00052,49.6,48.4,12,20,0,52.0,5.20,0.00,0.00
15min,AgWx,evansfrm,411,03NOV2017:15:45:00,52.5,12.83,51.0,51.0,51.0,51.1,50.8,71,72,70,0.914,42.0,42.3,41.6,1.513,2.4,357,30,5.4,0.00037,0.00051,49.7,48.0,12,35,0,51.7,5.20,0.00,0.00
15min,AgWx,evansfrm,411,03NOV2017:16:00:00,52.2,12.89,51.3,51.2,51.2,51.3,50.8,72,73,71,0.925,42.4,42.9,41.8,2.126,1.6,24,24,4.8,0.00042,0.00053,49.7,48.2,12,70,0,53.7,5.20,0.00,0.00
15min,AgWx,evansfrm,411,03NOV2017:16:15:00,52.2,12.85,51.0,51.2,51.1,51.3,50.9,72,73,71,0.932,42.5,42.7,42.2,0.373,2.0,31,21,4.0,0.00036,0.00048,49.7,48.0,12,57,0,53.6,5.20,0.00,0.00
15min,AgWx,evansfrm,411,03NOV2017:16:30:00,52.1,12.81,50.9,50.7,50.9,51.2,50.6,73,73,72,0.913,42.5,42.9,42.1,0,1.4,8.4,15,3.0,0.00024,0.00032,49.7,48.0,12,35,0,52.4,5.21,0.00,0.00
15min,AgWx,evansfrm,411,03NOV2017:16:45:00,51.9,12.78,50.4,50.5,50.6,50.8,50.4,73,73,72,0.913,42.2,42.4,41.9,0,0.4,327,19,1.5,0.00012,0.00014,49.8,48.0,12,14,0,50.8,5.21,0.00,0.00
15min,AgWx,evansfrm,411,03NOV2017:17:00:00,51.5,12.77,49.8,49.9,50.3,50.6,49.9,74,78,73,0.950,42.4,43.2,42.0,2.653,0.9,262,22,2.9,0.00011,0.00015,49.7,48.2,12,7,0,50.0,5.21,0.00,0.00
15min,AgWx,evansfrm,411,03NOV2017:17:15:00,51.2,12.75,49.1,49.1,49.6,50.0,49.1,85,89,78,1.056,45.2,46.2,43.3,1.666,1.5,255,10,3.1,0.00008,0.00013,49.7,48.2,12,3,28,50.0,5.21,0.00,0.00
15min,AgWx,evansfrm,411,03NOV2017:17:30:00,50.6,12.76,48.0,48.0,48.6,49.3,48.0,92,94,89,1.075,46.3,46.6,46.0,0,0.1,274,3.0,1.6,0.00001,0.00002,49.8,48.2,12,1,72,52.8,5.21,0.00,0.00
15min,AgWx,evansfrm,411,03NOV2017:17:45:00,49.9,12.76,47.5,47.6,47.7,48.2,47.5,96,97,94,1.080,46.6,46.9,46.3,1.885,0.8,116,15,2.2,0.00001,0.00002,49.9,47.8,12,0,0,47.1,5.21,0.00,0.00
15min,AgWx,evansfrm,411,03NOV2017:18:00:00,49.4,12.7,46.8,46.9,47.1,47.6,46.8,98,100,96,1.091,46.6,46.9,46.4,2.302,1.8,160,5.3,2.6,0.00001,0.00001,49.8,48.0,12,0,59,49.1,5.21,0.00,0.00
15min,AgWx,evansfrm,411,03NOV2017:18:15:00,48.8,12.76,47.1,47.0,47.0,47.1,46.8,100,100,100,1.097,47.0,47.1,46.7,2.126,3.3,192,22,4.7,0.00000,0.00000,49.7,48.2,12,0,34,48.3,5.22,0.00,0.00
15min,AgWx,evansfrm,411,03NOV2017:18:30:00,48.3,12.77,46.6,46.5,46.8,47.0,46.5,100,100,100,1.074,46.8,47.0,46.4,1.491,1.1,213,18,2.9,0.00000,0.00000,49.7,48.0,12,0,0,45.8,5.22,0.00,0.00
15min,AgWx,evansfrm,411,03NOV2017:18:45:00,47.9,12.76,45.6,45.6,46.0,46.5,45.5,100,100,100,1.041,46.0,46.5,45.5,3.047,2.7,129,8.6,3.7,0.00000,0.00000,49.6,48.2,12,0,0,45.8,5.22,0.00,0.00
15min,AgWx,evansfrm,411,03NOV2017:19:00:00,47.5,12.77,45.9,45.9,45.8,45.9,45.5,100,100,100,1.053,45.8,45.9,45.5,1.863,3.4,132,8.6,5.0,0.00000,0.00000,49.5,48.2,12,0,0,46.0,5.21,0.00,0.00
15min,AgWx,evansfrm,411,03NOV2017:19:15:00,47.2,12.76,45.9,45.9,45.9,46.0,45.8,100,100,100,1.053,45.9,46.0,45.7,0,0.5,202,18,2.7,0.00000,0.00000,49.5,48.4,12,0,0,45.6,5.21,0.00,0.00
15min,AgWx,evansfrm,411,03NOV2017:19:30:00,46.8,12.76,45.5,45.6,45.7,46.1,45.3,100,100,100,1.038,45.7,46.1,45.3,0,1.0,106,8.5,2.6,0.00000,0.00000,49.4,48.2,12,0,0,45.3,5.21,0.00,0.00
15min,AgWx,evansfrm,411,03NOV2017:19:45:00,46.5,12.76,45.0,44.7,45.5,45.8,44.7,100,100,100,1.003,45.5,45.8,44.7,1.863,0.7,50,13,1.9,0.00000,0.00000,49.4,48.2,12,0,0,44.6,5.22,0.00,0.00
15min,AgWx,evansfrm,411,03NOV2017:20:00:00,46.3,12.76,45.2,45.2,45.0,45.4,44.4,100,100,100,1.024,45.0,45.4,44.4,1.885,0.9,60,18,2.6,0.00000,0.00000,49.4,48.2,12,0,0,45.2,5.21,0.00,0.00
15min,AgWx,evansfrm,411,03NOV2017:20:15:00,46.2,12.75,45.4,45.2,45.2,45.4,45.1,100,100,100,1.024,45.3,45.4,45.1,0.175,0.7,26,8.0,2.2,0.00000,0.00000,49.2,48.2,12,0,0,45.4,5.21,0.00,0.00
15min,AgWx,evansfrm,411,03NOV2017:20:30:00,46.2,12.76,45.4,45.3,45.4,45.6,45.3,100,100,100,1.029,45.4,45.6,45.3,0,0.7,20,25,2.2,0.00000,0.00000,49.3,48.4,12,0,0,45.7,5.21,0.00,0.00
15min,AgWx,evansfrm,411,03NOV2017:20:45:00,46.2,12.72,45.6,45.6,45.5,45.8,45.4,100,100,100,1.041,45.5,45.8,45.4,2.411,0.6,76,22,2.9,0.00000,0.00000,49.1,48.2,12,0,100,51.7,5.21,0.00,0.00
15min,AgWx,evansfrm,411,03NOV2017:21:00:00,46.2,12.69,45.5,45.4,45.5,45.7,45.4,100,100,100,1.034,45.5,45.7,45.4,0,1.8,102,76,3.7,0.00000,0.00000,49.0,48.0,12,0,100,50.4,5.22,0.00,0.00
15min,AgWx,evansfrm,411,03NOV2017:21:15:00,46.1,12.7,45.1,45.2,45.4,45.6,45.1,100,100,100,1.024,45.4,45.6,45.2,2.85,1.7,156,50,3.0,0.00000,0.00000,48.9,48.0,12,0,100,50.1,5.22,0.00,0.00
15min,AgWx,evansfrm,411,03NOV2017:21:30:00,46.1,12.69,45.3,45.3,45.2,45.4,45.0,100,100,100,1.027,45.3,45.5,45.0,2.587,3.0,188,42,5.3,0.00000,0.00000,49.0,48.0,12,0,100,49.7,5.22,0.00,0.00
15min,AgWx,evansfrm,411,03NOV2017:21:45:00,46.0,12.74,45.3,45.3,45.3,45.5,45.1,100,100,100,1.027,45.3,45.5,45.1,1.403,1.8,163,73,5.3,0.00000,0.00000,48.9,48.2,12,0,58,49.6,5.22,0.00,0.00
15min,AgWx,evansfrm,411,03NOV2017:22:00:00,45.9,12.75,44.8,44.5,45.0,45.3,44.5,100,100,100,0.998,45.0,45.3,44.5,5.283,2.7,242,50,8.3,0.00000,0.00000,48.9,48.0,12,0,41,47.8,5.22,0.00,0.00
15min,AgWx,evansfrm,411,03NOV2017:22:15:00,45.7,12.75,45.3,45.1,44.9,45.1,44.5,100,100,100,1.019,44.9,45.1,44.5,2.236,3.5,214,16,6.9,0.00000,0.00000,48.7,48.2,12,0,0,45.0,5.22,0.00,0.00
15min,AgWx,evansfrm,411,03NOV2017:22:30:00,45.6,12.69,45.3,45.1,45.1,45.3,45.0,100,100,100,1.022,45.1,45.3,45.0,1.359,1.3,123,56,3.7,0.00000,0.00000,48.8,48.0,12,0,98,49.7,5.22,0.00,0.00
15min,AgWx,evansfrm,411,03NOV2017:22:45:00,45.6,12.74,44.9,44.8,44.9,45.1,44.7,100,100,100,1.010,44.9,45.2,44.7,3.902,2.8,358,11,4.0,0.00000,0.00000,48.7,47.8,12,0,16,46.9,5.22,0.00,0.00
15min,AgWx,evansfrm,411,03NOV2017:23:00:00,45.5,12.71,45.0,45.0,44.9,45.0,44.7,100,100,100,1.015,44.9,45.0,44.7,1.622,3.6,0.3,16,6.6,0.00000,0.00000,48.7,47.8,12,0,79,49.3,5.22,0.00,0.00
15min,AgWx,evansfrm,411,03NOV2017:23:15:00,45.5,12.71,45.1,44.9,45.0,45.1,44.8,100,100,100,1.012,45.0,45.1,44.8,1.359,2.8,351,19,5.1,0.00000,0.00000,48.6,47.8,12,0,100,50.2,5.22,0.00,0.00
15min,AgWx,evansfrm,411,03NOV2017:23:30:00,45.5,12.71,44.9,44.9,44.9,45.0,44.8,100,100,100,1.012,44.9,45.0,44.8,2.039,2.3,10,14,4.7,0.00000,0.00000,48.5,47.8,12,0,100,50.7,5.23,0.01,0.00
15min,AgWx,evansfrm,411,03NOV2017:23:45:00,45.5,12.71,45.0,44.9,44.9,45.0,44.7,100,100,100,1.012,44.9,45.0,44.7,4.209,1.1,29,20,4.5,0.00000,0.00000,48.5,48.0,12,0,100,51.4,5.23,0.00,0.01
15min,AgWx,drainfrm,410,03NOV2017:00:00:00,49.5,12.53,52.6,53.4,53.3,53.8,52.6,74,77,70,1.004,45.1,45.9,44.4,2.389,2.6,92,22,4.1,-0.00007,-0.00007,46.4,46.4,14,0,100,51.7,10.76,0.00,0.00
15min,AgWx,drainfrm,410,03NOV2017:00:15:00,49.6,12.53,52.9,53.8,53.6,54.4,52.5,72,77,69,0.982,44.8,45.7,43.9,3.902,3.8,123,33,6.3,0.00001,0.00003,46.5,46.4,14,0,100,53.6,10.76,0.00,0.00
15min,AgWx,drainfrm,410,03NOV2017:00:30:00,49.7,12.53,52.9,53.5,53.4,54.5,52.6,72,77,67,0.989,44.6,45.8,43.4,12.04,9.0,180,23,16.6,0.00017,0.00023,46.5,46.4,14,0,100,53.9,10.76,0.00,0.00
15min,AgWx,drainfrm,410,03NOV2017:00:45:00,49.8,12.53,51.3,51.6,52.8,53.5,51.6,74,80,71,1.039,44.9,45.6,44.3,4.669,8.6,201,13,13.6,0.00014,0.00019,46.6,46.6,14,0,100,51.6,10.76,0.01,0.01
15min,AgWx,drainfrm,410,03NOV2017:01:00:00,49.7,12.51,52.8,53.4,52.1,53.4,51.5,77,80,71,0.986,45.1,45.7,44.0,8.94,4.5,185,19,11.9,0.00000,0.00002,46.5,46.4,14,0,100,51.1,10.77,0.01,0.00
15min,AgWx,drainfrm,410,03NOV2017:01:15:00,49.6,12.53,52.0,52.6,52.8,53.5,52.3,74,76,71,1.000,44.6,45.1,44.2,11.18,9.2,188,16,13.9,0.00016,0.00021,46.6,46.4,14,0,100,50.5,10.78,0.01,0.01
15min,AgWx,drainfrm,410,03NOV2017:01:30:00,49.6,12.53,51.4,52.0,52.1,52.6,51.8,76,77,74,0.996,44.7,44.9,44.3,2.126,5.7,221,12,11.2,0.00006,0.00009,46.7,46.6,14,0,100,51.0,10.78,0.00,0.01
15min,AgWx,drainfrm,410,03NOV2017:01:45:00,49.5,12.53,52.3,53.2,52.2,53.4,50.9,74,80,68,0.963,44.2,45.2,43.1,3.858,4.4,143,25,7.4,0.00002,0.00004,46.7,46.6,14,0,100,53.1,10.78,0.00,0.00
15min,AgWx,drainfrm,410,03NOV2017:02:00:00,49.5,12.51,52.5,53.2,53.3,54.0,52.9,70,71,66,0.935,43.7,44.4,42.7,2.959,2.4,151,84,5.4,-0.00007,-0.00007,46.6,46.4,14,0,100,52.5,10.78,0.00,0.00
15min,AgWx,drainfrm,410,03NOV2017:02:15:00,49.6,12.53,52.4,52.7,54.3,55.8,52.7,66,74,59,0.989,43.2,44.8,41.4,2.762,3.7,189,42,9.1,0.00004,0.00008,46.6,46.8,14,0,100,52.0,10.78,0.00,0.00
15min,AgWx,drainfrm,410,03NOV2017:02:30:00,49.6,12.52,52.2,52.7,52.6,53.1,52.2,73,75,70,0.963,44.2,44.8,43.5,4.998,2.8,163,53,6.7,-0.00006,-0.00006,46.7,46.6,14,0,100,51.5,10.79,0.00,0.00
15min,AgWx,drainfrm,410,03NOV2017:02:45:00,49.5,12.52,53.2,54.0,52.8,54.0,52.4,71,74,65,0.934,43.8,44.6,42.6,2.806,2.3,178,22,4.7,-0.00008,-0.00009,46.7,46.6,14,0,100,51.8,10.79,0.00,0.00
15min,AgWx,drainfrm,410,03NOV2017:03:00:00,49.6,12.52,51.7,52.4,53.8,55.6,52.0,66,73,58,0.962,42.8,44.0,40.1,3.595,3.8,203,40,7.6,0.00004,0.00008,46.6,46.6,14,0,100,52.6,10.79,0.00,0.00
15min,AgWx,drainfrm,410,03NOV2017:03:15:00,49.7,12.52,51.3,51.9,52.2,52.9,51.3,72,76,68,0.976,43.4,44.2,42.6,4.779,4.3,244,20,7.0,0.00002,0.00006,46.7,46.6,14,0,100,51.8,10.79,0.00,0.00
15min,AgWx,drainfrm,410,03NOV2017:03:30:00,49.9,12.52,51.6,51.9,52.3,52.9,51.4,71,75,68,0.963,43.1,44.0,42.5,4.757,4.3,222,15,6.7,0.00004,0.00007,46.7,46.6,14,0,100,52.2,10.79,0.00,0.00
15min,AgWx,drainfrm,410,03NOV2017:03:45:00,50.2,12.52,52.6,53.1,53.0,54.8,51.8,67,73,59,0.921,42.2,43.5,40.4,6.445,6.6,221,9.3,11.0,0.00016,0.00022,46.8,46.6,14,0,100,53.7,10.79,0.00,0.00
15min,AgWx,drainfrm,410,03NOV2017:04:00:00,50.3,12.52,51.1,51.8,52.0,53.1,51.3,71,74,67,0.937,42.9,43.4,42.2,4.911,5.2,214,11,8.3,0.00007,0.00012,46.8,46.6,14,0,100,53.4,10.79,0.00,0.00
15min,AgWx,drainfrm,410,03NOV2017:04:15:00,50.5,12.52,52.6,53.0,52.9,53.8,51.8,66,72,62,0.895,41.9,43.2,40.8,5.349,7.1,211,15,11.7,0.00018,0.00024,46.8,46.6,14,0,100,54.4,10.79,0.00,0.00
15min,AgWx,drainfrm,410,03NOV2017:04:30:00,50.8,12.52,53.6,54.1,52.8,54.1,52.1,66,69,60,0.850,41.7,42.4,40.4,9.67,7.0,220,9.7,13.4,0.00018,0.00024,46.8,46.9,14,0,100,54.2,10.79,0.00,0.00
15min,AgWx,drainfrm,410,03NOV2017:04:45:00,51.3,12.52,52.7,53.3,53.7,54.6,52.6,62,67,58,0.887,41.1,42.1,40.1,8.59,8.4,226,14,13.9,0.00026,0.00034,46.9,46.9,14,0,100,55.3,10.79,0.00,0.00
15min,AgWx,drainfrm,410,03NOV2017:05:00:00,51.4,12.52,52.2,52.8,53.2,53.8,52.5,64,67,61,0.895,41.3,42.2,40.3,4.341,5.6,219,31,9.6,0.00014,0.00021,46.8,46.6,14,0,100,53.2,10.79,0.00,0.00
15min,AgWx,drainfrm,410,03NOV2017:05:15:00,51.3,12.52,51.1,51.5,52.4,53.0,51.4,68,71,64,0.908,41.9,42.7,41.1,3.814,5.1,196,14,7.4,0.00009,0.00014,46.9,46.6,14,0,100,51.8,10.79,0.00,0.00
15min,AgWx,drainfrm,410,03NOV2017:05:30:00,51.1,12.52,51.8,52.3,51.9,52.4,51.6,68,70,66,0.890,41.8,42.3,41.2,7.19,5.7,208,6.7,8.2,0.00011,0.00016,46.9,46.9,14,0,100,52.8,10.79,0.00,0.00
15min,AgWx,drainfrm,410,03NOV2017:05:45:00,50.9,12.52,51.8,52.3,52.0,52.7,51.1,68,72,64,0.864,41.6,42.6,40.7,11.4,6.3,211,9.5,11.4,0.00013,0.00019,47.0,46.9,14,0,100,51.9,10.79,0.00,0.00
15min,AgWx,drainfrm,410,03NOV2017:06:00:00,50.5,12.52,51.0,51.4,52.1,53.3,50.9,67,72,61,0.901,41.4,42.5,40.0,8.09,7.3,215,9.3,10.8,0.00018,0.00024,46.9,46.9,14,0,100,49.4,10.79,0.00,0.00
15min,AgWx,drainfrm,410,03NOV2017:06:15:00,50.0,12.52,50.9,51.4,51.4,51.9,50.9,69,71,67,0.898,41.7,42.2,41.2,9.95,9.7,217,7.5,13.1,0.00021,0.00026,46.9,46.9,14,0,100,49.4,10.80,0.00,0.00
15min,AgWx,drainfrm,410,03NOV2017:06:30:00,49.6,12.52,50.3,50.8,50.8,51.4,50.4,72,74,69,0.905,42.1,42.5,41.5,10.17,9.7,222,7.7,13.1,0.00018,0.00023,46.9,46.6,14,0,100,50.3,10.80,0.00,0.00
15min,AgWx,drainfrm,410,03NOV2017:06:45:00,49.1,12.52,50.3,50.8,50.4,51.1,49.9,74,76,71,0.912,42.5,42.9,41.9,12.17,10.1,215,9.9,13.5,0.00016,0.00021,46.9,46.8,14,0,100,48.9,10.80,0.01,0.01
15min,AgWx,drainfrm,410,03NOV2017:07:00:00,48.7,12.52,49.8,50.2,50.5,50.9,50.2,74,75,72,0.929,42.4,42.8,42.0,8.35,9.8,217,7.8,13.8,0.00016,0.00021,46.8,46.9,14,0,100,49.4,10.80,0.00,0.00
15min,AgWx,drainfrm,410,03NOV2017:07:15:00,48.5,12.52,50.5,51.1,50.2,51.6,49.6,75,78,69,0.919,42.8,43.3,41.7,11.31,8.3,209,15,15.2,0.00012,0.00016,46.9,46.6,14,7,100,48.9,10.81,0.00,0.00
15min,AgWx,drainfrm,410,03NOV2017:07:30:00,48.4,12.52,50.8,51.4,51.3,52.1,50.7,71,74,67,0.919,42.2,42.9,41.3,8.42,9.6,187,10,14.3,0.00039,0.00079,46.9,46.8,14,14,100,50.5,10.81,0.00,0.00
15min,AgWx,drainfrm,410,03NOV2017:07:45:00,48.3,12.52,50.0,50.5,51.0,51.4,50.4,72,73,70,0.913,42.2,42.7,41.7,9.23,11.9,182,10,16.7,0.00066,0.00113,47.0,46.8,14,10,100,49.7,10.81,0.00,0.01